QPF
0.04 0.04 0.03 0.04 0.04 0.05 0.06 0.06 0.06 0.06 0.04 0.03 0.02 0.01 0.00 0.00 0.00 0.00 0.00 0.00 0.00 0.01 0.01 0.01 0.00 0.00 0.01 0.01 0.01 0.01 0.01 0.01 0.01 0.02 0.01 0.02 0.03 0.02 0.03 0.03 0.04 0.05 0.06
0.05 0.05 0.04 0.05 0.07 0.08 0.07 0.07 0.06 0.05 0.03 0.02 0.01 0.01 0.00 0.00 0.00 0.00 0.00 0.01 0.00 0.00 0.00 0.01 0.01 0.01 0.01 0.01 0.01 0.01 0.01 0.01 0.01 0.02 0.03 0.03 0.02 0.03 0.04 0.03 0.03 0.05 0.04
0.04 0.04 0.05 0.06 0.07 0.08 0.05 0.04 0.03 0.02 0.02 0.02 0.01 0.01 0.00 0.00 0.00 0.00 0.00 0.01 0.00 0.00 0.01 0.01 0.01 0.00 0.01 0.01 0.02 0.02 0.02 0.01 0.01 0.02 0.05 0.05 0.03 0.06 0.06 0.04 0.03 0.04 0.04
0.02 0.05 0.04 0.05 0.04 0.05 0.03 0.02 0.01 0.01 0.01 0.02 0.01 0.00 0.00 0.00 0.00 0.00 0.00 0.01 0.01 0.00 0.01 0.00 0.00 0.00 0.00 0.00 0.01 0.02 0.02 0.01 0.01 0.01 0.04 0.04 0.03 0.03 0.04 0.03 0.02 0.03 0.03
0.02 0.04 0.02 0.02 0.02 0.02 0.02 0.01 0.01 0.01 0.01 0.01 0.02 0.01 0.01 0.00 0.00 0.00 0.00 0.01 0.01 0.01 0.00 0.00 0.00 0.00 0.00 0.00 0.00 0.01 0.01 0.01 0.01 0.01 0.03 0.02 0.03 0.02 0.03 0.02 0.02 0.02 0.03
0.01 0.01 0.02 0.01 0.01 0.01 0.01 0.01 0.00 0.00 0.00 0.00 0.01 0.01 0.01 0.01 0.01 0.00 0.00 0.00 0.01 0.01 0.01 0.00 0.00 0.00 0.00 0.00 0.00 0.00 0.01 0.01 0.01 0.01 0.03 0.02 0.02 0.02 0.02 0.02 0.01 0.01 0.02
0.00 0.00 0.01 0.00 0.00 0.01 0.01 0.01 0.00 0.00 0.01 0.01 0.01 0.01 0.01 0.01 0.01 0.00 0.00 0.00 0.01 0.01 0.01 0.01 0.00 0.00 0.00 0.00 0.00 0.00 0.00 0.01 0.01 0.01 0.01 0.01 0.01 0.02 0.01 0.00 0.01 0.00 0.01
0.00 0.00 0.00 0.00 0.00 0.00 0.01 0.01 0.00 0.00 0.00 0.00 0.00 0.01 0.01 0.01 0.01 0.01 0.00 0.01 0.01 0.01 0.01 0.01 0.00 0.00 0.00 0.00 0.00 0.00 0.00 0.00 0.00 0.01 0.01 0.01 0.01 0.01 0.01 0.01 0.00 0.00 0.01
0.00 0.00 0.01 0.01 0.00 0.00 0.01 0.01 0.00 0.00 0.00 0.00 0.00 0.00 0.01 0.01 0.00 0.00 0.01 0.01 0.01 0.01 0.01 0.01 0.01 0.01 0.00 0.00 0.00 0.00 0.00 0.00 0.00 0.00 0.01 0.02 0.01 0.01 0.02 0.02 0.01 0.00 0.00
0.00 0.00 0.01 0.00 0.00 0.00 0.01 0.01 0.01 0.01 0.01 0.00 0.00 0.01 0.01 0.01 0.01 0.01 0.00 0.00 0.00 0.01 0.01 0.01 0.01 0.01 0.00 0.00 0.00 0.00 0.01 0.01 0.01 0.00 0.01 0.02 0.02 0.02 0.02 0.01 0.01 0.00 0.00
0.00 0.00 0.00 0.00 0.00 0.00 0.00 0.01 0.01 0.01 0.01 0.01 0.01 0.01 0.01 0.01 0.01 0.01 0.00 0.00 0.01 0.01 0.01 0.01 0.00 0.01 0.01 0.00 0.00 0.00 0.01 0.01 0.01 0.00 0.00 0.01 0.01 0.02 0.02 0.01 0.01 0.00 0.00
0.00 0.00 0.00 0.00 0.01 0.00 0.00 0.00 0.01 0.01 0.01 0.01 0.01 0.01 0.01 0.01 0.02 0.01 0.00 0.00 0.01 0.01 0.01 0.01 0.00 0.01 0.01 0.01 0.00 0.00 0.01 0.01 0.00 0.00 0.00 0.00 0.00 0.01 0.01 0.01 0.00 0.00 0.00
0.00 0.00 0.00 0.00 0.01 0.01 0.01 0.00 0.00 0.01 0.01 0.01 0.00 0.01 0.01 0.01 0.02 0.02 0.02 0.02 0.01 0.01 0.01 0.00 0.01 0.01 0.01 0.01 0.00 0.00 0.01 0.01 0.00 0.00 0.00 0.00 0.00 0.00 0.01 0.01 0.01 0.00 0.00
0.00 0.00 0.00 0.00 0.00 0.01 0.01 0.01 0.00 0.00 0.01 0.01 0.00 0.00 0.01 0.01 0.02 0.04 0.05 0.06 0.06 0.04 0.02 0.01 0.01 0.01 0.01 0.01 0.01 0.01 0.01 0.01 0.00 0.00 0.01 0.00 0.00 0.00 0.00 0.01 0.01 0.01 0.01
0.00 0.00 0.00 0.01 0.00 0.00 0.01 0.01 0.01 0.00 0.00 0.01 0.00 0.00 0.00 0.01 0.01 0.02 0.03 0.04 0.05 0.05 0.04 0.03 0.02 0.01 0.01 0.00 0.01 0.01 0.01 0.00 0.00 0.00 0.00 0.00 0.00 0.00 0.00 0.00 0.00 0.01 0.01
0.00 0.00 0.00 0.00 0.01 0.01 0.01 0.01 0.01 0.01 0.01 0.01 0.01 0.01 0.01 0.01 0.01 0.02 0.02 0.02 0.02 0.02 0.02 0.01 0.01 0.01 0.01 0.01 0.01 0.01 0.00 0.00 0.00 0.00 0.00 0.00 0.00 0.00 0.00 0.00 0.00 0.00 0.00
0.00 0.00 0.00 0.00 0.01 0.01 0.01 0.01 0.01 0.01 0.02 0.02 0.02 0.02 0.02 0.02 0.02 0.03 0.02 0.01 0.01 0.00 0.00 0.00 0.00 0.00 0.00 0.01 0.01 0.00 0.00 0.00 0.00 0.00 0.00 0.00 0.00 0.00 0.00 0.00 0.00 0.00 0.00
0.00 0.00 0.00 0.00 0.00 0.01 0.02 0.02 0.01 0.01 0.01 0.02 0.03 0.03 0.02 0.02 0.02 0.02 0.01 0.01 0.01 0.00 0.00 0.00 0.00 0.00 0.00 0.01 0.01 0.00 0.00 0.00 0.00 0.00 0.00 0.00 0.00 0.00 0.00 0.00 0.00 0.00 0.00
0.00 0.00 0.00 0.00 0.00 0.00 0.01 0.02 0.02 0.01 0.01 0.01 0.01 0.01 0.01 0.01 0.01 0.01 0.01 0.01 0.01 0.01 0.00 0.00 0.00 0.00 0.00 0.01 0.01 0.00 0.00 0.00 0.00 0.00 0.00 0.00 0.00 0.00 0.00 0.00 0.00 0.00 0.00
0.01 0.01 0.00 0.00 0.00 0.00 0.00 0.01 0.01 0.02 0.01 0.01 0.01 0.01 0.01 0.01 0.01 0.01 0.01 0.01 0.01 0.01 0.01 0.01 0.00 0.01 0.00 0.00 0.01 0.00 0.00 0.00 0.00 0.00 0.00 0.00 0.00 0.00 0.00 0.00 0.00 0.00 0.00
0.01 0.01 0.00 0.00 0.00 0.00 0.00 0.00 0.00 0.01 0.01 0.01 0.01 0.01 0.01 0.01 0.01 0.01 0.01 0.01 0.01 0.01 0.01 0.01 0.01 0.01 0.00 0.00 0.01 0.00 0.00 0.00 0.00 0.00 0.00 0.00 0.00 0.00 0.00 0.00 0.00 0.00 0.00
0.01 0.01 0.00 0.00 0.01 0.00 0.01 0.00 0.00 0.01 0.01 0.01 0.01 0.01 0.01 0.01 0.01 0.01 0.01 0.01 0.01 0.01 0.01 0.01 0.00 0.00 0.00 0.00 0.01 0.01 0.00 0.00 0.00 0.00 0.00 0.00 0.00 0.00 0.00 0.00 0.00 0.00 0.00
0.01 0.01 0.01 0.00 0.01 0.01 0.00 0.00 0.01 0.01 0.01 0.01 0.01 0.01 0.01 0.01 0.01 0.00 0.01 0.01 0.01 0.01 0.00 0.00 0.00 0.00 0.00 0.01 0.01 0.01 0.01 0.01 0.01 0.01 0.01 0.01 0.00 0.00 0.00 0.00 0.00 0.00 0.00
0.01 0.01 0.01 0.01 0.01 0.01 0.00 0.00 0.01 0.01 0.01 0.01 0.01 0.01 0.01 0.01 0.01 0.00 0.00 0.00 0.01 0.01 0.01 0.00 0.00 0.00 0.00 0.01 0.02 0.03 0.03 0.02 0.01 0.01 0.01 0.01 0.00 0.00 0.00 0.00 0.00 0.00 0.00
0.00 0.01 0.01 0.01 0.01 0.01 0.01 0.01 0.01 0.01 0.01 0.00 0.01 0.01 0.01 0.01 0.01 0.01 0.00 0.00 0.00 0.01 0.01 0.01 0.01 0.00 0.00 0.01 0.01 0.02 0.02 0.02 0.02 0.01 0.01 0.01 0.00 0.00 0.00 0.00 0.00 0.00 0.00
0.00 0.01 0.01 0.01 0.01 0.01 0.01 0.01 0.01 0.01 0.00 0.00 0.01 0.01 0.01 0.01 0.01 0.00 0.00 0.00 0.01 0.01 0.02 0.01 0.01 0.01 0.01 0.01 0.01 0.02 0.02 0.02 0.02 0.01 0.01 0.01 0.00 0.01 0.01 0.01 0.01 0.01 0.00
MSLP
1016.59 1016.51 1016.43 1016.37 1016.33 1016.34 1016.42 1016.60 1016.85 1017.17 1017.52 1017.86 1018.15 1018.36 1018.48 1018.50 1018.45 1018.37 1018.27 1018.20 1018.17 1018.19 1018.25 1018.36 1018.50 1018.66 1018.85 1019.07 1019.33 1019.65 1020.04 1020.49 1020.98 1021.50 1022.02 1022.50 1022.92 1023.23 1023.45 1023.55 1023.56 1023.49 1023.36
1016.69 1016.66 1016.61 1016.54 1016.49 1016.48 1016.54 1016.71 1017.00 1017.37 1017.80 1018.23 1018.61 1018.90 1019.08 1019.13 1019.07 1018.95 1018.81 1018.69 1018.61 1018.59 1018.64 1018.74 1018.87 1019.01 1019.17 1019.35 1019.55 1019.80 1020.11 1020.49 1020.94 1021.45 1021.98 1022.51 1022.99 1023.40 1023.71 1023.92 1024.03 1024.05 1023.99
1016.67 1016.73 1016.73 1016.70 1016.64 1016.62 1016.66 1016.81 1017.10 1017.50 1017.99 1018.49 1018.95 1019.32 1019.56 1019.65 1019.61 1019.49 1019.33 1019.18 1019.08 1019.05 1019.08 1019.17 1019.29 1019.42 1019.54 1019.67 1019.81 1019.98 1020.21 1020.52 1020.91 1021.38 1021.90 1022.45 1022.98 1023.46 1023.86 1024.17 1024.39 1024.50 1024.53
1016.49 1016.65 1016.75 1016.78 1016.76 1016.73 1016.76 1016.89 1017.17 1017.57 1018.07 1018.62 1019.14 1019.57 1019.87 1020.02 1020.03 1019.93 1019.79 1019.65 1019.55 1019.51 1019.55 1019.64 1019.75 1019.87 1019.97 1020.06 1020.15 1020.25 1020.41 1020.65 1020.97 1021.38 1021.87 1022.41 1022.95 1023.47 1023.93 1024.32 1024.61 1024.82 1024.93
1016.13 1016.43 1016.65 1016.76 1016.80 1016.80 1016.83 1016.95 1017.20 1017.59 1018.09 1018.65 1019.20 1019.68 1020.03 1020.24 1020.30 1020.26 1020.15 1020.04 1019.97 1019.95 1020.00 1020.11 1020.23 1020.36 1020.46 1020.53 1020.59 1020.65 1020.75 1020.92 1021.18 1021.52 1021.95 1022.44 1022.96 1023.47 1023.95 1024.38 1024.73 1025.01 1025.19
1015.63 1016.06 1016.41 1016.65 1016.77 1016.83 1016.88 1016.99 1017.21 1017.57 1018.05 1018.60 1019.16 1019.67 1020.07 1020.33 1020.45 1020.46 1020.41 1020.34 1020.31 1020.33 1020.42 1020.55 1020.71 1020.86 1020.99 1021.08 1021.13 1021.19 1021.25 1021.37 1021.56 1021.83 1022.18 1022.59 1023.04 1023.51 1023.97 1024.40 1024.77 1025.09 1025.34
1015.04 1015.60 1016.09 1016.45 1016.68 1016.81 1016.90 1017.02 1017.24 1017.57 1018.01 1018.54 1019.09 1019.60 1020.02 1020.33 1020.50 1020.57 1020.58 1020.57 1020.58 1020.65 1020.78 1020.96 1021.16 1021.36 1021.53 1021.67 1021.76 1021.83 1021.89 1021.98 1022.11 1022.31 1022.56 1022.87 1023.23 1023.62 1024.01 1024.41 1024.78 1025.12 1025.41
1014.43 1015.10 1015.72 1016.20 1016.54 1016.76 1016.91 1017.06 1017.27 1017.58 1018.00 1018.49 1019.02 1019.53 1019.96 1020.29 1020.51 1020.63 1020.69 1020.74 1020.81 1020.92 1021.10 1021.33 1021.59 1021.85 1022.09 1022.28 1022.43 1022.55 1022.63 1022.71 1022.80 1022.93 1023.09 1023.29 1023.54 1023.82 1024.14 1024.48 1024.82 1025.16 1025.47
1013.88 1014.63 1015.34 1015.93 1016.38 1016.68 1016.90 1017.09 1017.31 1017.62 1018.01 1018.48 1018.99 1019.48 1019.93 1020.28 1020.53 1020.70 1020.81 1020.90 1021.02 1021.18 1021.40 1021.67 1021.99 1022.31 1022.62 1022.89 1023.12 1023.29 1023.41 1023.50 1023.57 1023.64 1023.72 1023.83 1023.97 1024.15 1024.37 1024.64 1024.94 1025.27 1025.59
1013.42 1014.22 1014.99 1015.66 1016.19 1016.57 1016.86 1017.10 1017.35 1017.66 1018.05 1018.50 1018.99 1019.49 1019.93 1020.31 1020.60 1020.81 1020.96 1021.10 1021.26 1021.45 1021.71 1022.02 1022.38 1022.75 1023.13 1023.47 1023.77 1024.00 1024.18 1024.30 1024.37 1024.41 1024.43 1024.45 1024.50 1024.59 1024.73 1024.93 1025.19 1025.50 1025.82
1013.06 1013.87 1014.68 1015.39 1015.97 1016.42 1016.76 1017.05 1017.34 1017.67 1018.07 1018.53 1019.03 1019.53 1019.99 1020.40 1020.72 1020.98 1021.18 1021.36 1021.56 1021.78 1022.06 1022.40 1022.78 1023.19 1023.61 1024.01 1024.37 1024.67 1024.89 1025.05 1025.13 1025.16 1025.16 1025.13 1025.12 1025.14 1025.21 1025.36 1025.58 1025.86 1026.17
1012.78 1013.57 1014.37 1015.09 1015.70 1016.18 1016.57 1016.91 1017.25 1017.62 1018.05 1018.53 1019.05 1019.58 1020.08 1020.53 1020.90 1021.21 1021.47 1021.70 1021.93 1022.18 1022.47 1022.82 1023.21 1023.64 1024.08 1024.51 1024.91 1025.25 1025.52 1025.71 1025.83 1025.87 1025.86 1025.81 1025.77 1025.74 1025.78 1025.88 1026.06 1026.31 1026.61
1012.51 1013.26 1014.03 1014.73 1015.34 1015.85 1016.29 1016.68 1017.07 1017.49 1017.96 1018.49 1019.05 1019.62 1020.17 1020.68 1021.12 1021.49 1021.81 1022.09 1022.36 1022.64 1022.95 1023.29 1023.68 1024.09 1024.53 1024.97 1025.38 1025.74 1026.05 1026.27 1026.42 1026.49 1026.49 1026.45 1026.39 1026.35 1026.36 1026.43 1026.58 1026.80 1027.06
1012.18 1012.89 1013.61 1014.29 1014.89 1015.42 1015.90 1016.34 1016.79 1017.28 1017.81 1018.39 1019.01 1019.64 1020.25 1020.82 1021.34 1021.79 1022.18 1022.53 1022.85 1023.15 1023.47 1023.80 1024.17 1024.56 1024.96 1025.38 1025.78 1026.15 1026.46 1026.71 1026.89 1026.98 1027.01 1026.99 1026.95 1026.90 1026.89 1026.94 1027.06 1027.23 1027.45
1011.72 1012.39 1013.07 1013.73 1014.34 1014.90 1015.43 1015.94 1016.46 1017.01 1017.61 1018.26 1018.94 1019.63 1020.31 1020.96 1021.55 1022.09 1022.56 1022.97 1023.33 1023.67 1024.00 1024.32 1024.65 1025.01 1025.37 1025.74 1026.11 1026.46 1026.78 1027.04 1027.23 1027.35 1027.41 1027.41 1027.38 1027.34 1027.32 1027.34 1027.42 1027.54 1027.71
1011.11 1011.75 1012.41 1013.07 1013.71 1014.32 1014.92 1015.51 1016.11 1016.75 1017.42 1018.13 1018.87 1019.62 1020.37 1021.08 1021.75 1022.36 1022.90 1023.38 1023.80 1024.17 1024.50 1024.82 1025.12 1025.42 1025.74 1026.06 1026.38 1026.70 1027.00 1027.25 1027.46 1027.60 1027.68 1027.70 1027.69 1027.65 1027.61 1027.60 1027.63 1027.70 1027.80
1010.35 1010.97 1011.65 1012.34 1013.04 1013.73 1014.41 1015.10 1015.80 1016.52 1017.27 1018.04 1018.83 1019.63 1020.43 1021.20 1021.92 1022.60 1023.20 1023.74 1024.21 1024.61 1024.96 1025.26 1025.53 1025.79 1026.05 1026.32 1026.59 1026.87 1027.14 1027.38 1027.59 1027.74 1027.84 1027.88 1027.87 1027.82 1027.77 1027.72 1027.70 1027.71 1027.76
1009.46 1010.10 1010.81 1011.57 1012.36 1013.16 1013.96 1014.76 1015.56 1016.37 1017.18 1018.01 1018.84 1019.68 1020.50 1021.30 1022.07 1022.79 1023.45 1024.03 1024.54 1024.97 1025.33 1025.63 1025.88 1026.10 1026.31 1026.53 1026.75 1026.99 1027.23 1027.46 1027.66 1027.82 1027.92 1027.97 1027.96 1027.91 1027.83 1027.75 1027.68 1027.64 1027.62
1008.53 1009.20 1009.97 1010.82 1011.72 1012.64 1013.57 1014.49 1015.40 1016.29 1017.17 1018.04 1018.90 1019.75 1020.58 1021.40 1022.19 1022.94 1023.63 1024.25 1024.79 1025.24 1025.61 1025.90 1026.14 1026.33 1026.51 1026.69 1026.88 1027.08 1027.29 1027.51 1027.70 1027.86 1027.97 1028.02 1028.01 1027.95 1027.86 1027.74 1027.63 1027.54 1027.48
1007.62 1008.33 1009.18 1010.13 1011.14 1012.19 1013.25 1014.29 1015.29 1016.26 1017.19 1018.09 1018.96 1019.81 1020.65 1021.47 1022.27 1023.02 1023.73 1024.37 1024.94 1025.41 1025.79 1026.09 1026.32 1026.50 1026.66 1026.81 1026.97 1027.15 1027.35 1027.55 1027.74 1027.91 1028.02 1028.08 1028.07 1028.01 1027.90 1027.77 1027.63 1027.51 1027.41
1006.81 1007.55 1008.47 1009.51 1010.64 1011.80 1012.97 1014.10 1015.19 1016.22 1017.19 1018.11 1018.98 1019.83 1020.66 1021.48 1022.27 1023.04 1023.76 1024.42 1025.00 1025.49 1025.89 1026.19 1026.42 1026.60 1026.75 1026.89 1027.04 1027.21 1027.40 1027.60 1027.80 1027.97 1028.10 1028.17 1028.17 1028.11 1028.01 1027.87 1027.72 1027.57 1027.45
1006.13 1006.90 1007.87 1008.98 1010.19 1011.44 1012.68 1013.89 1015.04 1016.10 1017.10 1018.03 1018.91 1019.76 1020.58 1021.40 1022.20 1022.97 1023.70 1024.37 1024.97 1025.48 1025.89 1026.21 1026.45 1026.64 1026.79 1026.93 1027.08 1027.25 1027.45 1027.65 1027.86 1028.04 1028.19 1028.28 1028.30 1028.26 1028.17 1028.04 1027.89 1027.74 1027.60
1005.63 1006.41 1007.40 1008.54 1009.79 1011.08 1012.37 1013.61 1014.79 1015.87 1016.88 1017.82 1018.71 1019.56 1020.39 1021.22 1022.03 1022.81 1023.56 1024.25 1024.87 1025.40 1025.83 1026.17 1026.42 1026.62 1026.78 1026.93 1027.09 1027.27 1027.48 1027.69 1027.91 1028.11 1028.28 1028.39 1028.44 1028.43 1028.36 1028.25 1028.12 1027.97 1027.83
1005.30 1006.07 1007.05 1008.19 1009.44 1010.73 1012.01 1013.25 1014.42 1015.51 1016.53 1017.47 1018.37 1019.24 1020.10 1020.94 1021.78 1022.59 1023.36 1024.08 1024.72 1025.26 1025.71 1026.06 1026.33 1026.54 1026.72 1026.89 1027.06 1027.25 1027.47 1027.70 1027.94 1028.16 1028.34 1028.48 1028.56 1028.58 1028.54 1028.46 1028.34 1028.21 1028.07
1005.13 1005.87 1006.82 1007.93 1009.13 1010.38 1011.63 1012.84 1013.98 1015.05 1016.07 1017.02 1017.94 1018.84 1019.73 1020.61 1021.48 1022.33 1023.13 1023.87 1024.52 1025.08 1025.55 1025.91 1026.20 1026.42 1026.62 1026.80 1026.98 1027.19 1027.42 1027.67 1027.92 1028.15 1028.36 1028.52 1028.63 1028.67 1028.67 1028.61 1028.52 1028.39 1028.25
1005.10 1005.81 1006.72 1007.76 1008.89 1010.07 1011.25 1012.40 1013.51 1014.56 1015.57 1016.54 1017.49 1018.43 1019.36 1020.29 1021.20 1022.08 1022.90 1023.66 1024.33 1024.90 1025.37 1025.74 1026.03 1026.27 1026.48 1026.67 1026.87 1027.09 1027.34 1027.60 1027.86 1028.11 1028.33 1028.50 1028.63 1028.70 1028.71 1028.67 1028.60 1028.48 1028.33
Thickness
5710 5711 5711 5710 5708 5706 5704 5702 5701 5701 5700 5699 5698 5697 5696 5697 5697 5698 5698 5699 5699 5699 5698 5697 5696 5695 5694 5693 5692 5691 5689 5687 5687 5685 5682 5682 5683 5684 5684 5685 5685 5686 5687
5707 5708 5708 5707 5705 5703 5702 5700 5699 5698 5698 5698 5697 5696 5695 5694 5694 5695 5696 5696 5696 5696 5696 5694 5693 5692 5691 5690 5689 5689 5686 5684 5684 5682 5679 5675 5676 5678 5680 5680 5680 5681 5682
5706 5706 5706 5704 5703 5701 5700 5701 5699 5698 5697 5696 5695 5694 5693 5692 5691 5691 5692 5693 5693 5694 5693 5692 5691 5691 5690 5688 5687 5687 5685 5682 5681 5681 5679 5673 5670 5671 5673 5674 5675 5676 5677
5708 5707 5706 5704 5702 5701 5701 5700 5699 5698 5696 5696 5694 5692 5689 5687 5688 5688 5689 5690 5691 5691 5691 5690 5690 5689 5688 5687 5686 5685 5684 5682 5679 5679 5678 5677 5675 5671 5668 5670 5671 5672 5672
5710 5708 5707 5706 5704 5702 5700 5700 5698 5697 5696 5695 5693 5691 5689 5687 5687 5687 5687 5687 5688 5688 5688 5688 5687 5687 5686 5685 5684 5683 5682 5681 5679 5678 5676 5674 5673 5671 5668 5664 5665 5666 5667
5712 5709 5708 5706 5703 5702 5700 5699 5697 5696 5694 5693 5692 5690 5688 5686 5685 5684 5684 5684 5685 5685 5686 5685 5685 5684 5683 5683 5682 5681 5681 5679 5678 5677 5675 5673 5672 5669 5667 5663 5661 5661 5662
5711 5708 5706 5704 5702 5701 5699 5698 5696 5694 5693 5692 5691 5689 5688 5686 5685 5684 5683 5683 5682 5682 5683 5683 5682 5682 5681 5681 5680 5679 5678 5677 5676 5675 5673 5672 5671 5670 5667 5664 5659 5658 5658
5711 5709 5708 5706 5704 5702 5699 5697 5695 5693 5693 5691 5690 5689 5688 5686 5685 5684 5683 5682 5681 5681 5681 5681 5681 5680 5680 5679 5678 5677 5676 5675 5674 5673 5672 5670 5669 5668 5667 5664 5660 5656 5654
5712 5710 5708 5706 5704 5702 5700 5698 5696 5694 5692 5691 5690 5688 5687 5686 5685 5684 5683 5682 5681 5681 5680 5679 5679 5678 5677 5676 5675 5673 5672 5672 5671 5670 5669 5667 5666 5665 5664 5663 5661 5657 5651
5712 5710 5708 5707 5705 5704 5701 5699 5697 5694 5692 5691 5689 5688 5686 5685 5684 5683 5682 5681 5681 5679 5678 5677 5676 5675 5675 5674 5672 5671 5670 5669 5668 5667 5666 5665 5663 5662 5661 5660 5658 5657 5653
5712 5711 5709 5707 5705 5703 5701 5698 5696 5693 5692 5690 5688 5687 5685 5684 5683 5682 5681 5680 5679 5678 5677 5676 5674 5673 5672 5671 5670 5668 5667 5666 5665 5664 5663 5661 5660 5658 5657 5656 5655 5653 5651
5714 5712 5709 5706 5704 5701 5699 5697 5695 5693 5692 5690 5688 5686 5685 5683 5682 5681 5680 5680 5678 5677 5676 5674 5672 5671 5670 5669 5668 5666 5665 5663 5661 5660 5659 5658 5657 5655 5653 5652 5651 5649 5647
5713 5710 5708 5705 5703 5701 5699 5697 5695 5693 5692 5690 5687 5685 5684 5683 5682 5680 5679 5678 5677 5675 5674 5672 5671 5669 5667 5666 5665 5664 5662 5661 5659 5658 5656 5655 5653 5651 5650 5649 5647 5645 5644
5711 5709 5706 5704 5703 5701 5699 5697 5695 5693 5691 5689 5687 5685 5684 5683 5682 5680 5679 5677 5676 5674 5672 5671 5669 5668 5666 5665 5663 5662 5660 5658 5656 5655 5654 5653 5651 5650 5648 5646 5644 5642 5639
5710 5708 5706 5704 5702 5700 5698 5696 5695 5693 5691 5688 5686 5685 5684 5683 5681 5679 5678 5676 5674 5673 5671 5669 5667 5666 5665 5664 5662 5660 5657 5655 5653 5653 5652 5651 5650 5649 5647 5645 5642 5639 5635
5710 5709 5707 5704 5702 5700 5698 5696 5694 5692 5690 5688 5686 5684 5683 5681 5680 5678 5676 5674 5673 5671 5669 5668 5666 5664 5664 5663 5661 5658 5655 5653 5651 5649 5649 5648 5647 5647 5646 5644 5641 5638 5633
5709 5708 5706 5705 5703 5701 5699 5697 5695 5693 5690 5687 5685 5683 5682 5680 5678 5677 5674 5672 5671 5669 5667 5666 5664 5663 5662 5661 5660 5657 5654 5651 5648 5647 5646 5645 5644 5642 5641 5639 5638 5635 5633
5709 5708 5706 5705 5704 5702 5700 5698 5695 5692 5689 5686 5684 5682 5680 5678 5676 5674 5672 5670 5669 5667 5665 5663 5662 5661 5660 5659 5657 5655 5651 5648 5646 5645 5643 5641 5640 5639 5637 5634 5631 5629 5628
5710 5709 5708 5706 5703 5701 5699 5696 5692 5690 5688 5685 5683 5681 5679 5677 5674 5672 5670 5669 5667 5665 5663 5662 5660 5658 5658 5657 5655 5652 5648 5645 5643 5642 5640 5639 5637 5636 5634 5630 5627 5624 5623
5708 5707 5706 5704 5701 5699 5697 5693 5690 5687 5686 5685 5683 5681 5678 5675 5673 5671 5669 5667 5665 5663 5661 5659 5658 5656 5655 5654 5652 5649 5645 5641 5639 5638 5637 5636 5635 5633 5630 5627 5623 5619 5617
5705 5704 5702 5699 5698 5696 5694 5691 5688 5686 5686 5684 5682 5679 5676 5674 5671 5668 5666 5664 5662 5659 5657 5655 5654 5653 5652 5651 5650 5647 5643 5640 5637 5634 5633 5632 5631 5629 5627 5623 5620 5617 5614
5700 5699 5697 5695 5694 5692 5691 5688 5686 5686 5684 5681 5679 5676 5674 5672 5669 5665 5663 5660 5658 5655 5653 5651 5650 5649 5648 5648 5646 5644 5641 5638 5634 5632 5631 5629 5628 5625 5622 5619 5616 5613 5609
5693 5693 5691 5690 5688 5688 5687 5684 5683 5682 5680 5677 5674 5672 5670 5668 5666 5662 5659 5656 5654 5651 5649 5647 5645 5644 5644 5643 5642 5640 5638 5635 5631 5630 5628 5625 5622 5620 5616 5614 5611 5606 5602
5686 5686 5685 5683 5682 5682 5682 5681 5680 5678 5676 5673 5671 5668 5665 5663 5661 5659 5656 5653 5650 5648 5646 5643 5641 5640 5639 5637 5637 5635 5632 5630 5627 5624 5622 5619 5616 5613 5610 5607 5603 5599 5596
5680 5680 5679 5678 5677 5677 5676 5676 5675 5673 5670 5668 5666 5664 5662 5659 5656 5654 5652 5650 5649 5648 5645 5643 5640 5637 5635 5636 5634 5630 5627 5625 5622 5618 5613 5610 5607 5604 5601 5598 5595 5592 5588
5672 5672 5672 5671 5671 5671 5671 5671 5670 5668 5665 5662 5660 5658 5656 5653 5651 5648 5645 5645 5644 5644 5642 5641 5638 5636 5635 5633 5630 5627 5624 5620 5616 5611 5607 5604 5601 5598 5595 5592 5588 5584 5581